Regional Weather Roundup
Issued by NWS Portland, ME

Current Version | Previous Version | Text Only | Print | Product List | Glossary Off
Versions: 1 2 3 4 5 6 7 8 9 10 11 12 13 14 15 16 17 18 19 20 21 22 23 24 25 26 27 28 29 30 31 32 33 34 35 36 37 38 39 40 41 42 43 44 45 46 47 48 49 50
173 ASUS41 KGYX 200010 RWRGYX WEATHER ROUNDUP FOR MAINE AND NEW HAMPSHIRE NATIONAL WEATHER SERVICE GRAY ME 700 PM EST SAT JAN 19 2019 MEZ002-005-006-010-012-015-018-020-021-024-026-027-029-200100- MAINE CITY SKY/WX TMP DP RH WIND PRES REMARKS PORTLAND CLOUDY 20 5 52 NE14 30.32F WCI 7 6HR MIN TEMP: 20; 6HR MAX TEMP: 24; SANFORD CLOUDY 22 10 60 E10 30.26F WCI 11 BAR HARBOR FLURRIES 11 0 61 NE8 30.40R WISCASSET CLOUDY 15 -4 42 VRB5 30.37R 6HR MIN TEMP: 15; 6HR MAX TEMP: 21; ROCKLAND CLOUDY 16 3 56 NE12 30.35F WCI 3 FRYEBURG FLURRIES 15 8 73 NE8 30.28F 6HR MIN TEMP: 15; 6HR MAX TEMP: 21; 6HR PCP: TRACE; LEWISTONAUBURN LGT SNOW 12 5 73 NE7 30.33S AUGUSTA LGT SNOW 9 5 84 NE5 30.34S VSB 1 6HR MIN TEMP: 8; 6HR MAX TEMP: 16; 6HR PCP: 0.01; WATERVILLE LGT SNOW 9 2 73 MISG 30.32S BANGOR CLOUDY 9 -3 58 NE10 30.38F WCI -5 6HR MIN TEMP: 9; 6HR MAX TEMP: 13; GREENVILLE N/A 0 -11 59 NE7 30.21F 6HR MIN TEMP: -2; 6HR MAX TEMP: 0; MILLINOCKET LGT SNOW 2 -7 66 NE7 30.40S 6HR MIN TEMP: 2; 6HR MAX TEMP: 6; 6HR PCP: TRACE; HOULTON CLOUDY -4 -16 56 NE7 30.41S 6HR MIN TEMP: -5; 6HR MAX TEMP: -2; PRESQUE ISLE CLOUDY -6 -18 56 N5 30.43R 6HR MIN TEMP: -6; 6HR MAX TEMP: -3; FRENCHVILLE MOCLDY -10 -22 55 NW7 30.35R 6HR MIN TEMP: -11; 6HR MAX TEMP: -8; CARIBOU CLOUDY -7 -20 53 N6 30.40R 6HR MIN TEMP: -7; 6HR MAX TEMP: -6; $$ NHZ002-005-008-009-011-012-014-200100- NEW HAMPSHIRE CITY SKY/WX TMP DP RH WIND PRES REMARKS PORTSMOUTH FLURRIES 25 15 65 E13 30.23F WCI 14 ROCHESTER CLOUDY 23 11 60 E7 30.24F 6HR MIN TEMP: 23; 6HR MAX TEMP: 29; NASHUA CLOUDY 26 22 84 E10G20 30.23F WCI 16 MANCHESTER FLURRIES 26 18 71 E13G21 30.21S WCI 15 6HR MIN TEMP: 26; 6HR MAX TEMP: 29; 6HR PCP: TRACE; CONCORD CLOUDY 24 18 77 E7G20 30.22F 6HR MIN TEMP: 23; 6HR MAX TEMP: 26; 6HR PCP: TRACE; LACONIA SNOW 18 15 88 NE15 30.23S VSB 1/2 WCI 4 PLYMOUTH LGT SNOW 14 11 90 CALM 30.23F VSB 3/4 BERLIN LGT SNOW 9 5 84 N3 30.20S FOG 6HR MIN TEMP: 9; 6HR MAX TEMP: 13; 6HR PCP: 0.03; WHITEFIELD LGT SNOW 9 5 84 N3 30.19F FOG 6HR MIN TEMP: 9; 6HR MAX TEMP: 12; 6HR PCP: 0.07; JAFFREY CLOUDY 24 14 65 VRB3 30.15R 6HR MIN TEMP: 24; 6HR MAX TEMP: 27; KEENE CLOUDY 26 15 63 VRB3 30.18R LEBANON LGT SNOW 13 6 74 N6 30.23R VSB 1 6HR MIN TEMP: 13; 6HR MAX TEMP: 17; 6HR PCP: 0.01; MT WASHINGTON SNOW 0 0 100 SW32 N/A VSB 1/8 WCI -27 6HR MIN TEMP: -1; 6HR MAX TEMP: 5; 6HR PCP: 0.02; $$ VTZ005-007-008-200100- VERMONT CITY SKY/WX TMP DP RH WIND PRES REMARKS ST JOHNSBURY N/A 7 3 84 MISG 30.22F MONTPELIER LGT SNOW 6 4 91 CALM 30.22S FOG BURLINGTON FLURRIES -6 -12 75 N7 30.29F $$ MAZ007-012-024-CTZ003-RIZ002-NYZ038-NYZ072-200100- SOUTHERN NEW ENGLAND AND NY CITY SKY/WX TMP DP RH WIND PRES REMARKS BOSTON LGT SNOW 30 26 85 NE18 30.24F FOG WCI 18 WORCESTER CLOUDY 23 20 88 E10G18 30.14R WCI 12 NANTUCKET CLOUDY 34 31 88 E14G24 30.18F PROVIDENCE FRZ DRZL 28 26 92 N8 30.20S FOG HARTFORD CLOUDY 31 21 66 SE8 30.16R ALBANY LGT SNOW 11 5 77 NE9 30.20F NEW YORK CITY CLOUDY 37 27 67 E9 30.08F $$ ANZ081-ANZ082-ANZ150-NHZ014-MEZ023>029-200100- COASTAL MARINE OBSERVATIONS STATION/POSITION TIME TEMP WIND PRES WAVE AIR SEA DIR/SP/G HT/PER (UTC) (F) (DEG/KT/KT) (MB) (FT/S) MOUNT DESERT ROC 0000 18 30/ 15/ 19 1028.2R MATINICUS ROCK 0000 21 50/ 13/ 15 1026.7S ISLE OF SHOALS 0000 25 80/ 23/ 25 1023.3F JEFFREYS LEDGE 2338 44 N/A 4/ 5 CASHES LEDGE BUO 2350 24 40 1026.8S 3/ 7 $$ .............KEY.............. WCI - WIND CHILL TC - TEMPERATURE IN CELSIUS VSB - VISIBILITY IN MILES HX - HEAT INDEX FAIR- INDICATES FEW OR NO CLOUDS BELOW 12,000 FT, WITH NO SIGNIFICANT WEATHER AND/OR OBSTRUCTIONS TO VISIBILITY.

USA.gov is the U.S. government's official web portal to all federal, state and local government web resources and services.